Flag for France Weather past 2 weeks in Perpignan, France

Now
81 °F

Partly sunny.


Feels Like: 83 °F
Forecast: 65 / 83 °F
Wind: 8 mph from East

Location: Perpignan Airport

Current Time: Sep 20, 2014 at 6:20:18 PM

Latest Report: Sep 20, 2014 at 3:30 PM


Visibility: N/A

Pressure: 30.01 "Hg

Humidity: 62%

Dew point: 66 °F

Location of PerpignanLocation

Historic Weather in Perpignan — Graph

°F

Perpignan temperature yesterday

Maximum temperature yesterday: 88 °F (at 4:30 PM)
Minimum temperature yesterday: 68 °F (at 5:30 AM)
Average temperature yesterday: 77 °F

Past Weeks' High & Low Weather Summary

 TemperatureHumidityPressure
High88 °F (Sep 12, 3:00 PM)100% (Sep 7, 9:30 PM)30.04 "Hg (Sep 7, 9:30 PM)
Low59 °F (Sep 13, 6:00 AM)18% (Sep 12, 4:30 PM)29.71 "Hg (Sep 17, 3:30 PM)
Average74 °F70%29.90 "Hg
* Reported Sep 5 3:00 PM — Sep 20 3:00 PM, Perpignan, Weather by CustomWeather, © 2014

Note: Actual official high and low records may vary slightly from our data, if they occured in-between our weather recording intervals... More about our weather records

Advertising

Perpignan weather history for previous 24 hours

 ConditionsComfort  
Time TempWeatherWind HumidityBarometerVisibility
3:00 PM
Sep 20
81 °FScattered clouds.9 mph62%29.98 "HgN/A
2:30 PM81 °FScattered clouds.10 mph62%30.01 "HgN/A
2:00 PM82 °FScattered clouds.10 mph58%30.01 "HgN/A
1:30 PM82 °FScattered clouds.3 mph58%30.01 "HgN/A
1:00 PM81 °FPartly sunny.7 mph62%30.01 "HgN/A
12:30 PM81 °FBroken clouds.6 mph62%30.01 "HgN/A
12:00 PM81 °FBroken clouds.5 mph62%30.01 "HgN/A
11:30 AM79 °FBroken clouds.3 mph61%30.01 "HgN/A
11:00 AM79 °FBroken clouds.3 mph61%30.01 "HgN/A
10:30 AM79 °FBroken clouds.No wind54%30.01 "HgN/A
10:00 AM75 °FSunny.1 mph57%30.01 "Hg10 mi
9:34 AM73 °FSunny.2 mph61%30.01 "Hg10 mi
9:00 AM70 °FSunny.6 mph69%30.01 "Hg10 mi
8:30 AM66 °FPassing clouds.3 mph78%30.01 "HgN/A
8:00 AM64 °FClear.6 mph88%29.98 "Hg10 mi
7:30 AM64 °FPartly cloudy.6 mph88%29.95 "HgN/A
7:00 AM66 °FPartly cloudy.3 mph83%29.95 "HgN/A
6:30 AM66 °FClear.3 mph83%29.95 "HgN/A
6:00 AM64 °FClear.3 mph94%29.92 "HgN/A
5:30 AM66 °FClear.3 mph88%29.92 "HgN/A
5:00 AM66 °FClear.5 mph88%29.92 "HgN/A
4:30 AM66 °FClear.2 mph88%29.92 "HgN/A
4:00 AM68 °FClear.3 mph88%29.92 "HgN/A
3:00 AM70 °FClear.5 mph88%29.92 "HgN/A
2:30 AM72 °FClear.2 mph83%29.92 "HgN/A
2:00 AM72 °FClear.1 mph83%29.89 "HgN/A
1:30 AM73 °FClear.5 mph78%29.89 "HgN/A
1:00 AM73 °FClear.5 mph78%29.89 "HgN/A
12:30 AM73 °FClear.5 mph78%29.92 "HgN/A
12:00 AM75 °FOvercast.5 mph74%29.89 "HgN/A
11:30 PM
Sep 19
77 °FPartly cloudy.9 mph69%29.89 "HgN/A
11:00 PM77 °FClear.8 mph69%29.89 "HgN/A
10:30 PM77 °FClear.8 mph69%29.89 "HgN/A
10:00 PM77 °FClear.7 mph69%29.86 "HgN/A
9:30 PM79 °FClear.2 mph65%29.86 "HgN/A
9:00 PM79 °FClear.6 mph65%29.86 "HgN/A
8:30 PM81 °FClear.8 mph62%29.83 "HgN/A
8:00 PM81 °FClear.12 mph62%29.83 "HgN/A
7:30 PM82 °FClear.12 mph55%29.83 "HgN/A
7:00 PM84 °FPartly sunny.12 mph51%29.83 "HgN/A
6:30 PM84 °FPartly sunny.12 mph55%29.83 "HgN/A
6:00 PM86 °FPartly sunny.13 mph49%29.83 "HgN/A
Weather by CustomWeather, © 2014

See weather overviewHow to use our weather pages